Location: Gwatt
(46.7204°N, 7.6223°E)
Time: 01:38:30
(UTC+00:00)

Transit 2A - Pass Details

Date: 26 January 2021
Orbit: 601 x 958 km, 66.7° (Epoch: 07 March)

Event Time Altitude Azimuth Distance (km) Brightness Sun altitude
Rises 10:01:02 0° 332° (NNW) 3,068 8.5 20.8°
Reaches altitude 10° 10:03:53 10° 347° (NNW) 2,091 7.8 21.0°
Maximum altitude 10:07:35 23° 39° (NE) 1,371 7.2 21.3°
Drops below altitude 10° 10:11:06 10° 92° (E) 1,976 8.6 21.5°
Sets 10:13:43 0° 108° (ESE) 2,856 9.5 21.7°
